Triuchirapalli, India

5:05 PM IST on September 17, 2019 (GMT +0530)
Tiruchirappalli

Weather History for VOTR - July, 2019

Change the Weather History Date:

Friday, July 19, 2019

  Actual Average Record
Temperature  
Mean Temperature 88 °F -  
Max Temperature 97 °F 92 °F 100 °F (2001)
Min Temperature 79 °F 80 °F 71 °F (2012)
Cooling Degree Days 23    
Growing Degree Days 38 (Base 50)    
Moisture  
Dew Point 71 °F    
Average Humidity 61    
Maximum Humidity 84    
Minimum Humidity 31    
Precipitation  
Precipitation 0.00 in - - ()
Sea Level Pressure  
Sea Level Pressure 29.60 in    
Wind  
Wind Speed 10 mph ()    
Max Wind Speed 17 mph    
Max Gust Speed 25 mph    
Visibility 3.8 miles    
Events      
Averages and records for this station are not official NWS values.
T = Trace of Precipitation, MM = Missing Value Source: Averaged Metar Reports

Daily Weather History Graph

Daily Weather History Graph

Search for Another Location

Airport or City:

Astronomy

Jul. 19, 2019 Rise Set
Actual Time 6:01 AM IST 6:41 PM IST
Civil Twilight 5:38 AM IST 7:04 PM IST
Nautical Twilight 5:11 AM IST 7:30 PM IST
Astronomical Twilight 4:44 AM IST 7:57 PM IST
Moon 8:40 PM IST (7/19) 7:50 AM IST (7/19)
Length of Visible Light 13h 26m
Length of Day
12h 40m
Waning Gibbous, 95% of the Moon is Illuminated
Jul 19
Waning Gibbous
Jul 25
Last Quarter
Aug 1
New
Aug 7
First Quarter
Aug 15
Full

Hourly Weather History & Observations

Time (IST) Temp. Heat Index Dew Point Humidity Pressure Visibility Wind Dir Wind Speed Gust Speed Precip Events Conditions
12:00 AM 82.4 °F 89.5 °F 75.2 °F 79% 29.65 in 3.7 mi WSW 5.8 mph - N/A   Scattered Clouds
12:30 AM 82.4 °F 89.5 °F 75.2 °F 79% 29.65 in 3.7 mi West 8.1 mph - N/A   Scattered Clouds
1:00 AM 82.4 °F 89.5 °F 75.2 °F 79% 29.62 in 3.7 mi West 8.1 mph - N/A   Scattered Clouds
1:30 AM 82.4 °F 89.5 °F 75.2 °F 79% 29.62 in 3.7 mi West 10.4 mph - N/A   Scattered Clouds
2:00 AM 82.4 °F 89.5 °F 75.2 °F 79% 29.62 in 3.7 mi West 10.4 mph - N/A   Scattered Clouds
2:30 AM 81 °F - 74 °F 75% 29.61 in 2 mi WNW 9.2 mph - -   Haze
2:30 AM 80.6 °F 86.2 °F 75.2 °F 84% 29.62 in 3.7 mi WNW 9.2 mph - N/A   Scattered Clouds
3:00 AM 80.6 °F 86.2 °F 75.2 °F 84% 29.59 in 3.7 mi West 10.4 mph - N/A   Scattered Clouds
3:30 AM 80.6 °F 86.2 °F 75.2 °F 84% 29.59 in 3.7 mi West 10.4 mph - N/A   Scattered Clouds
4:00 AM 80.6 °F 85.4 °F 73.4 °F 79% 29.59 in 3.7 mi WNW 9.2 mph - N/A   Scattered Clouds
4:30 AM 80.6 °F 85.4 °F 73.4 °F 79% 29.59 in 3.7 mi West 11.5 mph - N/A   Scattered Clouds
5:00 AM 80.6 °F 85.4 °F 73.4 °F 79% 29.59 in 3.7 mi West 11.5 mph - N/A   Scattered Clouds
5:30 AM 81 °F - 73 °F 71% 29.60 in 2 mi West 11.5 mph - -   Haze
5:30 AM 80.6 °F 85.4 °F 73.4 °F 79% 29.59 in 3.7 mi West 11.5 mph - N/A   Mostly Cloudy
6:00 AM 80.6 °F 85.4 °F 73.4 °F 79% 29.59 in 3.7 mi West 9.2 mph - N/A   Mostly Cloudy
6:30 AM 80.6 °F 85.4 °F 73.4 °F 79% 29.59 in 3.7 mi West 10.4 mph - N/A   Mostly Cloudy
7:00 AM 80.6 °F 85.4 °F 73.4 °F 79% 29.59 in 3.7 mi West 11.5 mph - N/A   Mostly Cloudy
7:30 AM 82.4 °F 87.2 °F 71.6 °F 70% 29.62 in 3.7 mi West 10.4 mph 21.9 mph N/A   Mostly Cloudy
8:00 AM 82.4 °F 87.2 °F 71.6 °F 70% 29.62 in 3.7 mi West 9.2 mph 20.7 mph N/A   Mostly Cloudy
8:30 AM 83 °F - 71 °F 58% 29.62 in 2 mi WNW 13.8 mph - -   Haze
8:30 AM 82.4 °F 87.2 °F 71.6 °F 70% 29.62 in 3.7 mi WNW 9.2 mph 20.7 mph N/A   Mostly Cloudy
9:30 AM 86.0 °F 90.4 °F 69.8 °F 58% 29.62 in 3.7 mi WNW 9.2 mph 20.7 mph N/A   Scattered Clouds
10:00 AM 87.8 °F 92.6 °F 69.8 °F 55% 29.65 in 3.7 mi WNW 11.5 mph 23.0 mph N/A   Scattered Clouds
10:30 AM 89.6 °F 93.4 °F 68.0 °F 49% 29.65 in 3.7 mi WNW 11.5 mph 23.0 mph N/A   Scattered Clouds
11:00 AM 91.4 °F 95.4 °F 68.0 °F 46% 29.65 in 3.7 mi WNW 11.5 mph 23.0 mph N/A   Scattered Clouds
11:30 AM 92 °F - 71 °F 40% 29.62 in 2 mi West 16.1 mph - -   Haze
11:30 AM 93.2 °F 100.5 °F 71.6 °F 49% 29.62 in 5.0 mi West 11.5 mph 23.0 mph N/A   Scattered Clouds
12:00 PM 93.2 °F 100.5 °F 71.6 °F 49% 29.62 in 5.0 mi West 11.5 mph 23.0 mph N/A   Scattered Clouds
12:30 PM 95.0 °F 103.2 °F 71.6 °F 47% 29.59 in 5.0 mi West 11.5 mph 23.0 mph N/A   Scattered Clouds
1:30 PM 96.8 °F 105.1 °F 71.6 °F 44% 29.56 in 6.2 mi WNW 11.5 mph 23.0 mph N/A   Scattered Clouds
2:00 PM 96.8 °F 105.1 °F 71.6 °F 44% 29.56 in 6.2 mi West 11.5 mph 23.0 mph N/A   Scattered Clouds
2:30 PM 97 °F - 69 °F 31% 29.53 in 2 mi West 16.1 mph - -   Scattered Clouds
2:30 PM 96.8 °F 105.1 °F 71.6 °F 44% 29.53 in 6.2 mi West 11.5 mph 23.0 mph N/A   Scattered Clouds
3:00 PM 96.8 °F 105.1 °F 71.6 °F 44% 29.53 in 6.2 mi West 11.5 mph 23.0 mph N/A   Partly Cloudy
3:30 PM 96.8 °F 105.1 °F 71.6 °F 44% 29.53 in 5.0 mi West 13.8 mph 25.3 mph N/A   Scattered Clouds
4:00 PM 95.0 °F 101.3 °F 69.8 °F 44% 29.53 in 5.0 mi West 13.8 mph 25.3 mph N/A   Scattered Clouds
4:30 PM 93.2 °F 100.5 °F 71.6 °F 49% 29.53 in 5.0 mi West 13.8 mph 25.3 mph N/A   Partly Cloudy
5:00 PM 93.2 °F 100.5 °F 71.6 °F 49% 29.53 in 5.0 mi West 13.8 mph 25.3 mph N/A   Partly Cloudy
5:30 PM 90 °F - 68 °F 38% 29.54 in 2 mi West 17.3 mph - -   Haze
5:30 PM 89.6 °F 93.4 °F 68.0 °F 49% 29.53 in 5.0 mi West 11.5 mph 23.0 mph N/A   Partly Cloudy
6:00 PM 89.6 °F 93.4 °F 68.0 °F 49% 29.56 in 3.7 mi West 11.5 mph 23.0 mph N/A   Partly Cloudy
6:30 PM 87.8 °F 92.6 °F 69.8 °F 55% 29.59 in 3.7 mi West 11.5 mph 23.0 mph N/A   Mostly Cloudy
7:00 PM 86.0 °F 90.4 °F 69.8 °F 58% 29.59 in 3.7 mi West 11.5 mph 23.0 mph N/A   Mostly Cloudy
7:30 PM 86.0 °F 90.4 °F 69.8 °F 58% 29.59 in 3.7 mi West 11.5 mph 23.0 mph N/A   Mostly Cloudy
8:00 PM 84.2 °F 88.4 °F 69.8 °F 62% 29.62 in 3.7 mi West 11.5 mph 23.0 mph N/A   Mostly Cloudy
8:30 PM 85 °F - 67 °F 46% 29.62 in 2 mi West 16.1 mph - -   Haze
8:30 PM 84.2 °F 87.3 °F 68.0 °F 58% 29.62 in 3.7 mi West 11.5 mph 23.0 mph N/A   Scattered Clouds
9:00 PM 84.2 °F 87.3 °F 68.0 °F 58% 29.62 in 3.7 mi West 11.5 mph 23.0 mph N/A   Scattered Clouds
9:30 PM 84.2 °F 87.3 °F 68.0 °F 58% 29.65 in 3.7 mi West 9.2 mph 20.7 mph N/A   Scattered Clouds
10:00 PM 84.2 °F 87.3 °F 68.0 °F 58% 29.65 in 3.7 mi West 11.5 mph 23.0 mph N/A   Scattered Clouds
10:30 PM 82.4 °F 85.4 °F 68.0 °F 62% 29.65 in 3.7 mi West 11.5 mph 23.0 mph N/A   Scattered Clouds
11:00 PM 82.4 °F 85.4 °F 68.0 °F 62% 29.65 in 3.7 mi West 11.5 mph - N/A   Scattered Clouds
11:30 PM 83 °F - 70 °F 56% 29.67 in 2 mi West 11.5 mph - -   Haze
11:30 PM 82.4 °F 86.3 °F 69.8 °F 66% 29.68 in 3.7 mi West 11.5 mph - N/A   Scattered Clouds